Regional Weather Roundup
Issued by NWS Kansas City/Pleasant Hill, MO

Home | Current Version | Previous Version | Text Only | Print | Product List | Glossary On
Versions: 1 2 3 4 5 6 7 8 9 10 11 12 13 14 15 16 17 18 19 20 21 22 23 24 25 26 27 28 29 30 31 32 33 34 35 36 37 38 39 40 41 42 43 44 45 46 47 48 49 50
000
ASUS43 KEAX 301910
RWREAX

WEATHER ROUNDUP FOR EASTERN KANSAS AND NORTHWEST MISSOURI
NATIONAL WEATHER SERVICE KANSAS CITY/PLEASANT HILL MO
200 PM CDT SAT APR 30 2016

KSZ040-057-103>105-MOZ028-029-037-043-302000-
...KANSAS CITY METROPOLITAN AREA...

CITY           SKY/WX    TMP DP  RH WIND       PRES   REMARKS
K.C. INTL      MOSUNNY   64  54  69 SW18G24   29.71S
K.C. DOWNTOWN  PTSUNNY   67  52  58 SW13G23   29.71R
LEES SUMMIT    MOSUNNY   66  54  65 SW18G25   29.72R
OLATHE - IXD   MOSUNNY   64  52  64 W15G24    29.73S
OLATHE - OJC   PTSUNNY   63  51  65 SW12G26   29.73R
LAWRENCE       MOSUNNY   63  51  65 W17G25    29.73S

$$

MOZ001>008-011>017-020>025-030>033-038>040-044>046-053-054-302000-
...NORTHERN AND CENTRAL MISSOURI...

CITY           SKY/WX    TMP DP  RH WIND       PRES   REMARKS
ST. JOSEPH     CLOUDY    62  54  74 SW17G23   29.70R
MOSBY            N/A     64  54  68 SW10G20   29.70R
WARRENSBURG    MOSUNNY   68  55  64 SW16G25   29.70R
WHITEMAN AFB   MOSUNNY   71  57  60 W23G30    29.67S
CLINTON        MOSUNNY   72  57  60 SW16G23   29.71S
SEDALIA        MOSUNNY   73  56  54 SW21G32   29.69S
WARSAW         NOT AVBL
CHILLICOTHE      N/A     69  62  78 VRB3      29.68S
KIRKSVILLE     CLOUDY    60  59  96 E3        29.70S

$$

MOZ041-047>049-056>058-063>065-088>090-097-302000-
...EASTERN AND SOUTHERN MISSOURI...

CITY           SKY/WX    TMP DP  RH WIND       PRES   REMARKS
ST. LOUIS INTL CLOUDY    68  61  78 S9        29.74F
SPIRIT OF STL  CLOUDY    70  64  83 S9        29.72S
COLUMBIA       MOSUNNY   73  62  68 SW14G21   29.69S
JEFFERSON CITY MOSUNNY   74  60  61 SW12G18   29.68F
ROLLA          CLOUDY    72  64  76 SW12      29.70F
OSAGE BEACH    MOSUNNY   73  57  56 SW13      29.70S
SPRINGFIELD    PTSUNNY   73  60  63 W16       29.72S
BRANSON        PTSUNNY   73  61  64 W12       29.74F
JOPLIN         PTSUNNY   69  59  70 SW16G24   29.75F
WEST PLAINS    CLOUDY    70  60  70 S8        29.77F

$$

IAZ060-094-KSZ022-034>040-054-083-096-NEZ052-066-093-302000-
...KANSAS...SOUTHEAST NEBRASKA AND IOWA...

CITY           SKY/WX    TMP DP  RH WIND       PRES   REMARKS
TOPEKA         PTSUNNY   61  49  64 W12       29.73F
MANHATTAN      PTSUNNY   60  46  59 W13G20    29.73S
EMPORIA        MOSUNNY   61  48  62 W9        29.75F
CHANUTE        MOSUNNY   63  50  62 SW13      29.77S
WICHITA        MOSUNNY   61  46  57 W16       29.78F
OMAHA          DRIZZLE   49  47  93 E9        29.74R FOG
LINCOLN        CLOUDY    51  48  89 NE9       29.73R FOG
FALLS CITY     CLOUDY    58  53  84 W12       29.70R
LAMONI         CLOUDY    52  51  97 E6        29.71R
DES MOINES     LGT RAIN  50  46  86 E15       29.77S FOG

$$




USA.gov is the U.S. government's official web portal to all federal, state and local government web resources and services.